DW9936 Weather Reports


time (UTC)temp
F
wind
direction
speed
knots
gust
knots
rain 1hr
in
rain 24hr
in
rain mn
in
humidity
%
barometer
mb
20260510133103 73 120 0.0 2.6 0.00 0.00 0.00 47 1010.2
20260510131604 74 168 0.0 3.5 0.00 0.00 0.00 46 1010.4
20260510130055 74 59 1.7 7.0 0.00 0.00 0.00 45 1010.6
20260510124609 74 81 0.9 5.2 0.00 0.00 0.00 45 1010.8
20260510123052 73 68 0.0 4.3 0.00 0.00 0.00 46 1011.1
20260510121548 73 100 0.9 6.1 0.00 0.00 0.00 46 1011.3
20260510120045 72 149 0.9 4.3 0.00 0.00 0.00 47 1011.5
20260510114543 72 81 0.0 3.5 0.00 0.00 0.00 47 1012.0
20260510113039 71 69 0.0 3.5 0.00 0.00 0.00 48 1012.2
20260510111558 71 133 0.9 6.1 0.00 0.00 0.00 48 1012.5
20260510110035 71 137 0.9 7.0 0.00 0.00 0.00 47 1012.6
20260510104540 70 60 0.9 6.1 0.00 0.00 0.00 49 1013.0
20260510103035 69 96 1.7 6.1 0.00 0.00 0.00 49 1013.1
20260510101528 68 47 0.9 3.5 0.00 0.00 0.00 50 1013.3
20260510100024 69 109 0.9 6.1 0.00 0.00 0.00 49 1013.5
20260510094523 68 100 0.0 4.3 0.00 0.00 0.00 50 1013.8
20260510093018 67 115 0.0 6.1 0.00 0.00 0.00 50 1013.9
20260510091534 66 233 0.9 5.2 0.00 0.00 0.00 51 1014.0
20260510090013 66 57 1.7 4.3 0.00 0.00 0.00 51 1014.3
20260510084508 66 83 1.7 4.3 0.00 0.00 0.00 51 1014.6
20260510083004 65 111 0.0 3.5 0.00 0.00 0.00 54 1014.8
20260510081602 64 74 1.7 5.2 0.00 0.00 0.00 54 1015.0
20260510074552 61 62 0.9 3.5 0.00 0.00 0.00 56 1015.4
20260510073051 61 108 0.9 3.5 0.00 0.00 0.00 57 1015.7
20260510071546 60 106 0.0 3.5 0.00 0.00 0.00 60 1015.9
20260510070046 59 103 0.0 2.6 0.00 0.00 0.00 62 1016.1
20260510064556 58 121 0.0 2.6 0.00 0.00 0.00 62 1016.2
20260510063042 57 237 0.0 1.7 0.00 0.00 0.00 64 1016.4
20260510061542 56 313 0.0 1.7 0.00 0.00 0.00 66 1016.5
20260510060032 55 167 0.0 1.7 0.00 0.00 0.00 68 1016.6
20260510054521 54 326 0.0 0.9 0.00 0.00 0.00 71 1016.7
20260510053017 52 324 0.0 0.9 0.00 0.00 0.00 74 1016.9
20260510051512 50 324 0.0 0.0 0.00 0.00 0.00 78 1016.7
20260510050008 48 324 0.0 0.0 0.00 0.00 0.00 83 1016.9
20260510044507 46 324 0.0 0.0 0.00 0.00 0.00 83 1017.0
20260510043002 45 315 0.0 0.0 0.00 0.00 0.00 83 1017.1
20260510041611 45 315 0.0 1.7 0.00 0.00 0.00 83 1017.1
20260510040059 45 315 0.0 0.0 0.00 0.00 0.00 82 1017.2
20260510034604 45 315 0.0 0.0 0.00 0.00 0.00 81 1017.1
20260510033057 46 315 0.0 0.9 0.00 0.00 0.00 81 1017.1
20260510031603 45 315 0.0 1.7 0.00 0.00 0.00 82 1017.2
20260510024554 45 310 0.0 0.0 0.00 0.00 0.00 82 1017.3
20260510023050 45 311 0.0 0.0 0.00 0.00 0.00 82 1017.2
20260510021550 45 311 0.0 0.0 0.00 0.00 0.00 82 1017.4
20260510020049 45 311 0.0 0.0 0.00 0.00 0.00 82 1017.3
20260510014547 46 311 0.0 0.0 0.00 0.00 0.00 80 1017.3
20260510013051 46 311 0.0 0.0 0.00 0.00 0.00 80 1017.4
20260510011545 47 311 0.0 0.0 0.00 0.00 0.00 79 1017.4
20260510010041 47 310 0.0 0.9 0.00 0.00 0.00 79 1017.5
20260510004540 47 347 0.0 0.0 0.00 0.00 0.00 79 1017.5
20260510003051 47 347 0.0 0.9 0.00 0.00 0.00 78 1017.6
20260510001536 48 348 0.0 0.9 0.00 0.00 0.00 77 1017.7
20260510000034 48 348 0.0 0.9 0.00 0.00 0.00 77 1017.9
20260509234548 48 107 0.0 0.0 0.00 0.00 0.00 76 1018.1
20260509233040 48 107 0.0 0.0 0.00 0.00 0.00 76 1018.5
20260509231529 49 107 0.0 0.0 0.00 0.00 0.00 75 1018.5
20260509230022 49 107 0.0 0.0 0.00 0.00 0.00 75 1018.7
20260509224520 50 107 0.0 0.0 0.00 0.00 0.00 73 1018.9
20260509223018 51 107 0.0 0.0 0.00 0.00 0.00 72 1018.9
20260509221516 51 107 0.0 0.0 0.00 0.00 0.00 71 1018.9
20260509220018 52 107 0.0 0.0 0.00 0.00 0.00 70 1018.9
20260509214510 52 107 0.0 0.0 0.00 0.00 0.00 70 1018.9
20260509213010 53 108 0.0 0.0 0.00 0.00 0.00 69 1018.9
20260509211509 53 108 0.0 0.0 0.00 0.00 0.00 68 1018.8
20260509210008 54 108 0.0 0.0 0.00 0.00 0.00 67 1018.8
20260509204508 55 107 0.0 0.0 0.00 0.00 0.00 66 1018.7
20260509203008 56 107 0.0 0.0 0.00 0.00 0.00 65 1018.6
20260509201509 57 107 0.0 0.0 0.00 0.00 0.00 63 1018.5
20260509200006 58 107 0.0 0.0 0.00 0.00 0.00 61 1018.2
20260509194509 59 108 0.0 0.0 0.00 0.00 0.00 60 1018.1
20260509193006 60 111 0.0 1.7 0.00 0.00 0.00 59 1017.9
20260509191506 60 107 0.0 1.7 0.00 0.00 0.00 58 1017.8
20260509190007 61 68 0.0 1.7 0.00 0.00 0.00 58 1017.5
20260509184513 62 76 0.0 0.0 0.00 0.00 0.00 56 1017.3
20260509183005 64 76 0.0 0.0 0.00 0.00 0.00 54 1016.9
20260509181504 65 78 0.0 0.9 0.00 0.00 0.00 52 1016.8
20260509180003 66 155 0.0 2.6 0.00 0.00 0.00 51 1016.8
20260509174503 67 134 0.0 2.6 0.00 0.00 0.00 49 1016.8
20260509173002 67 103 0.0 2.6 0.00 0.00 0.00 48 1016.7
20260509171501 67 78 0.0 0.9 0.00 0.00 0.00 48 1016.7
20260509170002 68 76 0.0 6.1 0.00 0.00 0.00 47 1016.7
20260509164502 68 131 0.0 4.3 0.00 0.00 0.00 46 1016.5
20260509163106 68 96 0.0 4.3 0.00 0.00 0.00 46 1016.4
20260509161600 68 101 0.0 1.7 0.00 0.00 0.00 45 1016.5
20260509160058 69 114 0.9 3.5 0.00 0.00 0.00 45 1016.7
20260509154608 70 132 0.0 3.5 0.00 0.00 0.00 44 1016.7
20260509153058 71 67 0.9 3.5 0.00 0.00 0.00 43 1016.7
20260509151556 71 243 0.9 4.3 0.00 0.00 0.00 42 1016.8
20260509150108 71 106 0.0 2.6 0.00 0.00 0.00 44 1016.9
20260509144600 69 240 0.0 2.6 0.00 0.00 0.00 46 1016.9
20260509143056 69 172 0.0 5.2 0.00 0.00 0.00 45 1017.0
20260509141553 69 108 0.9 5.2 0.00 0.00 0.00 45 1016.9
20260509140058 69 113 0.0 3.5 0.00 0.00 0.00 44 1017.0
20260509134552 69 67 0.0 4.3 0.00 0.00 0.00 46 1017.1